星链-4319 (STARLINK-4319 )

导读 | 星芒AI

STARLINK-4319 是 SpaceX Starlink 项目中的一颗低轨通信卫星,属于第 15 批组网发射的星群。该卫星部署在约 550 公里的近地轨道,旨在为全球用户提供高速互联网服务。作为 Starlink 网络的一部分,它通过与其他卫星协同工作,实现低延迟、高带宽的通信连接,特别服务于偏远和网络基础设施薄弱的地区。STARLINK-4319 采用先进推进和通信技术,支持自动避障,确保在轨运行安全与稳定。

基本信息
目录编号:
53084
目录名称:
STARLINK-4319
国际标识:
2022-077AT
轨道中心:
EARTH
卫星名称:
星链-4319
卫星全名:
星链-4319 (STARLINK-4319 )
卫星状态:
在轨 (已飞行1259 天)
发射日期:
2022-07-11 UTC
国别 :
美国 (US)
星等 :
--
轨道信息
数据来源 国际轨道数据
星历时间: 2025-12-21T06:21:25+0800
8小时前
查看轨道信息
半长轴: 6927.636km
偏心率: 0.0001934
轨道倾角: 97.602°
近地点辐角 69.024°
升交点赤经 173.573°
平近点角 291.120°
近地点: 548.159km
远地点: 550.839km
周期: 95.640分钟
每日圈数: 15.05654
详细信息
固有亮度:
5
最大亮度:
2.5
卫星平台:
Starlink v1.5
覆盖范围:
全球
运营商:
太空探索技术公司
运营商所在国:
美国
制造商(研发单位):
太空探索技术公司
制造商所在国:
美国
使用方式:
暂无
卫星简介
星链(Starlink)计划是由太空探索技术公司(SpaceX)提出的一个巨型低轨卫星互联网星座项目,计划在2019年至2024年间在太空搭建由约1.2万颗卫星组成的“星链”网络,其中1584颗将部署在地球上空550千米处的近地轨道,并从2020年开始工作。该卫星仍在工作。
2D轨道图
3D轨道图
轨道高度分析图
轨道倾角分析图
轨道综合分析图
查看轨道综合分析图